Leominster, MA

2:08 AM EST on February 21, 2017 (GMT -0500)
Fitchburg Municipal

Weather History for KFIT - June, 2014

Change the Weather History Date:

Monday, June 9, 2014

  Actual Average (KORH) Record (KORH)
Temperature  
Mean Temperature 71 °F -  
Max Temperature 79 °F 74 °F 92 °F (2008)
Min Temperature 64 °F 53 °F 38 °F (1980)
Cooling Degree Days 6    
Growing Degree Days 21 (Base 50)    
Moisture  
Dew Point 56 °F    
Average Humidity 63    
Maximum Humidity 78    
Minimum Humidity 50    
Precipitation  
Precipitation 0.00 in - - ()
Sea Level Pressure  
Sea Level Pressure 29.96 in    
Wind  
Wind Speed 5 mph (West)    
Max Wind Speed 14 mph    
Max Gust Speed 21 mph    
Visibility 10 miles    
Events Rain    
Averages and records for this station are not official NWS values.
T = Trace of Precipitation, MM = Missing Value Source: NWS Daily Summary

Daily Weather History Graph

Daily Weather History Graph

Search for Another Location

Airport or City:

Trip Planner

Search our weather history database for the weather conditions in past years. The results will help you decide how hot, cold, wet, or windy it might be!

Date:

Astronomy

Jun. 09, 2014 Rise Set
Actual Time 5:09 AM EDT 8:23 PM EDT
Civil Twilight 4:34 AM EDT 8:58 PM EDT
Nautical Twilight 3:50 AM EDT 9:42 PM EDT
Astronomical Twilight 2:56 AM EDT 10:37 PM EDT
Moon 4:37 PM EDT (6/9) 2:39 AM EDT (6/9)
Length of Visible Light 16h 23m
Length of Day
15h 13m
Waxing Gibbous, 85% of the Moon is Illuminated
Jun 9
Waxing Gibbous
Jun 13
Full
Jun 19
Last Quarter
Jun 27
New
Jul 5
First Quarter

Hourly Weather History & Observations

Time (EDT) Temp. Dew Point Humidity Pressure Visibility Wind Dir Wind Speed Gust Speed Precip Events Conditions
12:52 AM 71.1 °F 53.1 °F 53% 29.91 in 10.0 mi Variable 3.5 mph - N/A   Clear
1:52 AM 70.0 °F 53.1 °F 55% 29.91 in 10.0 mi NNW 3.5 mph - N/A   Clear
2:52 AM 69.1 °F 53.1 °F 57% 29.91 in 10.0 mi Variable 3.5 mph - N/A   Clear
3:52 AM 66.9 °F 53.1 °F 61% 29.92 in 10.0 mi NNW 4.6 mph - N/A   Clear
4:52 AM 64.9 °F 54.0 °F 68% 29.92 in 10.0 mi NW 5.8 mph - N/A   Clear
5:52 AM 66.0 °F 54.0 °F 65% 29.94 in 10.0 mi NNW 4.6 mph - N/A   Clear
6:52 AM 66.9 °F 55.9 °F 68% 29.94 in 10.0 mi Calm Calm - N/A   Clear
7:52 AM 66.9 °F 57.0 °F 70% 29.96 in 10.0 mi SE 4.6 mph - N/A   Clear
8:52 AM 71.1 °F 55.9 °F 59% 29.96 in 10.0 mi West 9.2 mph - N/A   Partly Cloudy
9:52 AM 72.0 °F 57.0 °F 59% 29.96 in 10.0 mi West 8.1 mph - N/A   Overcast
11:52 AM 75.9 °F 57.0 °F 52% 29.97 in 10.0 mi Variable 6.9 mph - N/A   Mostly Cloudy
12:52 PM 77.0 °F 57.0 °F 50% 29.97 in 10.0 mi West 9.2 mph - N/A   Overcast
2:52 PM 77.0 °F 59.0 °F 54% 29.96 in 10.0 mi West 4.6 mph - N/A   Mostly Cloudy
3:52 PM 78.1 °F 59.0 °F 52% 29.96 in 10.0 mi WNW 4.6 mph - N/A   Clear
4:52 PM 73.0 °F 57.9 °F 59% 29.97 in 10.0 mi WSW 13.8 mph 20.7 mph 0.00 in Rain Light Rain
5:52 PM 66.9 °F 55.0 °F 66% 29.99 in 10.0 mi WNW 5.8 mph - 0.00 in   Overcast
6:52 PM 66.9 °F 54.0 °F 63% 29.99 in 10.0 mi South 4.6 mph - 0.00 in   Overcast
7:52 PM 66.0 °F 57.9 °F 75% 29.99 in 10.0 mi West 8.1 mph - N/A   Overcast
8:52 PM 66.0 °F 57.0 °F 73% 30.00 in 10.0 mi WSW 3.5 mph - N/A   Overcast
9:52 PM 64.9 °F 57.0 °F 75% 29.99 in 10.0 mi West 3.5 mph - N/A   Partly Cloudy
10:52 PM 66.0 °F 57.9 °F 75% 29.99 in 10.0 mi SSW 4.6 mph - N/A   Mostly Cloudy
11:52 PM 64.9 °F 57.9 °F 78% 29.99 in 10.0 mi WSW 5.8 mph - N/A   Overcast